Regional Weather Roundup
Issued by NWS Newport/Morehead, NC

Current Version | Previous Version | Text Only | Print | Product List | Glossary On
Versions: 1 2 3 4 5 6 7 8 9 10 11 12 13 14 15 16 17 18 19 20 21 22 23 24 25 26 27 28 29 30 31 32 33 34 35 36 37 38 39 40 41 42 43 44 45 46 47 48 49 50
000
ASUS42 KMHX 010913
RWRMHX
WEATHER ROUNDUP FOR EASTERN NORTH CAROLINA
NATIONAL WEATHER SERVICE NEWPORT/MOREHEAD CITY NC
500 AM EDT SAT AUG 01 2015

NOTE: "FAIR" INDICATES FEW OR NO CLOUDS BELOW 12,000 FEET
WITH NO SIGNIFICANT WEATHER AND/OR OBSTRUCTIONS TO VISIBILITY

NCZ015>017-031-032-045>047-102-103-011000-
NORTH COAST

CITY           SKY/WX    TMP DP  RH WIND       PRES   REMARKS
EDENTON        PTCLDY    70  67  89 CALM      29.90F
ELIZABETH CITY PTCLDY    72  67  84 S7        29.90S
KITTY HAWK     MOSUNNY   76  64  67 CALM      29.89F
MANTEO         PTCLDY    72  66  82 CALM      29.91S

$$

NCZ045>047-081-094-103-104-011000-
CENTRAL COAST

CITY           SKY/WX    TMP DP  RH WIND       PRES   REMARKS
FRISCO         CLOUDY    77  70  79 E5        29.90F
SWANQUARTER      N/A     73 N/A N/A NE2       29.85S

$$

NCZ095-097-098-100-101-011000-
SOUTHERN COAST

CITY           SKY/WX    TMP DP  RH WIND       PRES   REMARKS
BEAUFORT       MOCLDY    77  77 100 NE5       29.89S
CEDAR ISLAND     N/A     79 N/A N/A CALM      29.94S
JACKSONVILLE   PTCLDY    75  72  90 CALM      29.88F
PINEY ISLAND   MOSUNNY  N/A N/A N/A CALM      29.90S
WILMINGTON     PTCLDY    75  73  93 CALM      29.89S


$$

NCZ011>013-027>030-043-044-078>080-089-090>093-098-011000-
COASTAL PLAIN

CITY           SKY/WX    TMP DP  RH WIND       PRES   REMARKS
AHOSKIE        CLEAR     66  64  96 CALM      29.91S
CLINTON        CLEAR     75  69  81 CALM      29.90S
ELIZABETHTOWN  CLEAR     74  73  96 CALM      29.90S
GOLDSBORO      CLEAR     72  70  92 NW1       29.88S
GREENVILLE     CLEAR     72  72 100 CALM      29.92F
HAVELOCK       CLEAR     75  74  96 CALM      29.90F
KENANSVILLE    CLEAR    N/A N/A N/A CALM      29.91S
KINSTON        CLEAR     73  72  95 CALM      29.91S
NEW BERN       CLEAR     74  71  91 N3        29.90F
RICHLANDS      PTCLDY    72  66  83 CALM      29.90S
ROCKY MOUNT    CLEAR     67  65  93 CALM      29.91S
WASHINGTON     CLEAR     71  70  97 CALM      29.91S FOG
WHITEVILLE     CLEAR     72  70  94 CALM      29.89F

$$

AMZ130-135-150-152-154-156-158-170-250-252-270-ANZ085-086-088-633-658-670-011000-
MARINE OBSERVATIONS

STATION/POSITION TIME  TEMP    WIND        PRES    WAVE   SWELL
                       AIR SEA DIR/SP/G            HT/PER HT/PER
                 (UTC) (F)     (DEG/KT/KT) (MB)    (FT/S) (FT/S)
CHESAPEAKE LIGHT 0900   78     240/ 11/ 12 1012.6
64 E VA BEACH    0850   81 81  230/  8/ 10 1011.9    3/ 9   3/ 9
DUCK             0800   79 69  190/  6/  6 1011.8
2 E DUCK         0811      78                N/A     2/ 8
OREGON INLET     0800   78 79  140/  2/  3 1012.6
13E OREGON INLT  0900      81                N/A     3/ 8
HATTERAS CG      0800   79 81   80/  3/  4 1012.5
DIAMOND BUOY     0850   81 85  120/  4/  6 1012.6    4/ 8   5/ 8
CAPE LOOKOUT     0900   80     310/  3/  4 1011.8
BEAUFORT LAB     0800   80 83   10/  1/  2 1011.5
30 SE NEW RVR IN NOT AVBL
27 SE WRIGHTSVLE 0800   74 82  300/  6/  8   N/A
5 SE WRIGHTSVLE  0808   80 83  300/  8/ 10 1012.3
225 S CAPE HAT   0850   80 81  250/ 25/ 33 1015.3    7/ 7   2/12
41 SE CHARLESTON 0850   81 84  220/ 14/ 16 1011.2    4/ 7   3/ 7

$$



USA.gov is the U.S. government's official web portal to all federal, state and local government web resources and services.